Regional Weather Roundup
Issued by NWS

Home | Current Version | Previous Version | Text Only | Print | Product List | Glossary Off
Versions: 1 2 3 4 5 6 7 8 9 10 11 12 13 14 15 16 17 18 19 20 21 22 23 24 25 26 27 28 29 30 31 32 33 34 35 36 37 38 39 40 41 42 43 44 45 46 47 48 49 50

000
ASUS43 KLSX 301359
RWRMO

WEATHER SUMMARY FOR MISSOURI
NATIONAL WEATHER SERVICE SPRINGFIELD MO
900 AM CDT SAT AUG 30 2014

NOTE: "FAIR" INDICATES FEW OR NO CLOUDS BELOW 12,000 FEET WITH NO
       SIGNIFICANT WEATHER AND/OR OBSTRUCTIONS TO VISIBILITY.
       CURRENT SKY AND/OR WEATHER CONDITIONS ARE NOT AVAILABLE FOR
       CHILLICOTHE AND FARMINGTON.

MOZ001>031-035>038-043-044-053-054-301500-
...NORTHERN AND WESTERN MISSOURI...

CITY           SKY/WX    TMP DP  RH WIND       PRES   REMARKS
KANSAS CTY INT MOSUNNY   72  68  87 NW5       29.94R
KANSAS C DTWN  SUNNY     74  68  81 W6        29.92S
LEE`S SUMMIT   SUNNY     73  68  84 W5        29.94S
ST JOSEPH      MOSUNNY   72  68  87 NW5       29.93R
KIRKSVILLE     SUNNY     73  68  84 SW7       29.91S

$$
MOZ066>068-077>081-088>096-101>105-301500-
...SOUTHWEST MISSOURI...

CITY           SKY/WX    TMP DP  RH WIND       PRES   REMARKS
SPRINGFIELD    MOSUNNY   73  65  75 S9        29.97F
JOPLIN         CLOUDY    75  69  81 S7        29.97S

$$
MOZ032>034-039>042-045>050-055>058-069>072-301500-
...CENTRAL MISSOURI...

CITY           SKY/WX    TMP DP  RH WIND       PRES   REMARKS
COLUMBIA       MOSUNNY   74  70  87 S10       29.94R
JEFFERSON CITY CLOUDY    74  69  85 CALM      29.94R
ROLLA          MOSUNNY   76  68  76 SW13      29.96R
SEDALIA        SUNNY     77  69  76 SW13      29.94S
OSAGE BEACH    PTSUNNY   73  68  83 S6        29.96S

$$
MOZ051-052-059>065-301500-
...EAST CENTRAL MISSOURI...

CITY           SKY/WX    TMP DP  RH WIND       PRES   REMARKS
ST LOUIS INTL  PTSUNNY   77  69  76 SW7       29.96R
SPIRIT OF STL  PTSUNNY   75  69  81 CALM      29.95R
ST CHARLES     MOSUNNY   76  70  82 SW10      29.94R

$$
MOZ072>076-082>087-097>100-106>115-301500-
...SOUTH CENTRAL AND SOUTHEAST MISSOURI...

CITY           SKY/WX    TMP DP  RH WIND       PRES   REMARKS
CAPE GIRARDEAU LGT RAIN  74  72  93 W6        30.02R FOG
FARMINGTON     CLOUDY    72  70  94 S10       30.03R
POPLAR BLUFF   CLOUDY    76  70  82 CALM      29.99S
WEST PLAINS    CLOUDY    73  68  84 SW5       30.03R

$$



USA.gov is the U.S. government's official web portal to all federal, state and local government web resources and services.